Location: Grange Rosano
(44.4500°N, 6.9667°E)
Time: 08:24:37
(UTC+00:00)

Cosmos 1300 - Pass Details

Date: 26 May 2022
Orbit: 506 x 508 km, 82.5° (Epoch: 01 July)

Event Time Altitude Azimuth Distance (km) Brightness Sun altitude
Rises 00:57:10 0° 345° (NNW) 2,622 7.1 -21.4°
Reaches altitude 10° 00:59:22 10° 338° (NNW) 1,731 6.0 -21.3°
Enters shadow 01:02:38 42° 282° (WNW) 737 3.3 -21.1°
